�������l�o���
Date,Time,MP-1(��Sv/h),MP-2(��Sv/h),MP-3(��Sv/h),MP-4(��Sv/h),MP-5(��Sv/h),MP-6(��Sv/h),MP-7(��Sv/h),����,����(m/s),���J
2019/03/07,00:00,0.210,0.188,0.306,0.285,0.275,0.154,0.093,-,CALM,��
2019/03/07,00:10,0.210,0.188,0.303,0.285,0.275,0.152,0.094,�k�k��,1.5,��
2019/03/07,00:20,0.209,0.189,0.303,0.285,0.275,0.152,0.093,�k�k��,1.1,�L
2019/03/07,00:30,0.210,0.188,0.305,0.284,0.274,0.154,0.093,�k��,1.4,�L
2019/03/07,00:40,0.210,0.188,0.305,0.286,0.275,0.153,0.093,�k��,1.9,�L
2019/03/07,00:50,0.212,0.189,0.303,0.285,0.275,0.154,0.094,���k��,1.7,�L
2019/03/07,01:00,0.211,0.189,0.306,0.284,0.273,0.154,0.094,���k��,3.2,�L
2019/03/07,01:10,0.209,0.189,0.305,0.285,0.275,0.153,0.093,�k�k��,3.1,�L
2019/03/07,01:20,0.212,0.190,0.305,0.286,0.274,0.155,0.094,�k�k��,3.7,�L
2019/03/07,01:30,0.212,0.190,0.305,0.286,0.275,0.155,0.094,�k,4.2,�L
2019/03/07,01:40,0.211,0.189,0.304,0.286,0.277,0.154,0.094,�k�k��,3.9,�L
2019/03/07,01:50,0.212,0.191,0.305,0.287,0.273,0.155,0.094,�k�k��,3.7,�L
2019/03/07,02:00,0.210,0.190,0.307,0.286,0.275,0.155,0.094,�k�k��,4.2,�L
2019/03/07,02:10,0.211,0.190,0.305,0.286,0.275,0.155,0.095,�k�k��,3.7,�L
2019/03/07,02:20,0.212,0.191,0.305,0.285,0.276,0.155,0.095,�k,4.6,�L
2019/03/07,02:30,0.212,0.192,0.307,0.286,0.276,0.156,0.095,�k,4.6,�L
2019/03/07,02:40,0.211,0.190,0.305,0.287,0.275,0.155,0.095,�k,5.6,�L
2019/03/07,02:50,0.213,0.192,0.305,0.286,0.276,0.156,0.095,�k,6.7,�L
2019/03/07,03:00,0.212,0.191,0.306,0.285,0.276,0.155,0.095,�k,5.7,�L
2019/03/07,03:10,0.213,0.192,0.306,0.284,0.276,0.155,0.095,�k,6.4,�L
2019/03/07,03:20,0.213,0.191,0.306,0.286,0.275,0.156,0.096,�k,6.6,�L
2019/03/07,03:30,0.212,0.191,0.306,0.286,0.275,0.155,0.096,�k,6.8,�L
2019/03/07,03:40,0.213,0.189,0.306,0.285,0.275,0.155,0.095,�k�k��,6.2,�L
2019/03/07,03:50,0.212,0.191,0.304,0.285,0.274,0.156,0.095,�k�k��,6.1,�L
2019/03/07,04:00,0.211,0.192,0.305,0.287,0.275,0.155,0.095,�k�k��,5.3,�L
2019/03/07,04:10,0.211,0.190,0.306,0.285,0.274,0.155,0.097,�k�k��,5.8,�L
2019/03/07,04:20,0.212,0.192,0.305,0.285,0.273,0.154,0.095,�k�k��,5.5,�L
2019/03/07,04:30,0.212,0.190,0.304,0.285,0.274,0.155,0.095,�k�k��,6.0,�L
2019/03/07,04:40,0.211,0.191,0.304,0.285,0.274,0.155,0.096,�k�k��,5.5,�L
2019/03/07,04:50,0.210,0.188,0.304,0.283,0.273,0.154,0.095,�k,6.9,�L
2019/03/07,05:00,0.210,0.190,0.301,0.283,0.272,0.153,0.095,�k�k��,7.1,�L
2019/03/07,05:10,0.209,0.189,0.301,0.282,0.271,0.153,0.095,�k�k��,7.3,�L
2019/03/07,05:20,0.209,0.188,0.302,0.281,0.270,0.153,0.095,�k�k��,8.1,�L
2019/03/07,05:30,0.209,0.188,0.301,0.282,0.270,0.153,0.095,�k�k��,7.1,�L
2019/03/07,05:40,0.209,0.189,0.300,0.282,0.270,0.154,0.094,�k�k��,6.6,�L
2019/03/07,05:50,0.207,0.189,0.300,0.281,0.271,0.152,0.095,�k�k��,7.7,�L
2019/03/07,06:00,0.209,0.187,0.299,0.279,0.270,0.153,0.096,�k�k��,7.4,�L
2019/03/07,06:10,0.208,0.189,0.299,0.280,0.272,0.153,0.096,�k�k��,9.6,�L
2019/03/07,06:20,0.209,0.188,0.298,0.280,0.272,0.154,0.097,�k��,6.7,�L
2019/03/07,06:30,0.209,0.189,0.298,0.278,0.271,0.155,0.097,�k�k��,8.1,�L
2019/03/07,06:40,0.209,0.189,0.298,0.279,0.272,0.153,0.097,-,CALM,�L
2019/03/07,06:50,0.209,0.189,0.299,0.279,0.272,0.154,0.097,-,CALM,�L
2019/03/07,07:00,0.208,0.190,0.297,0.280,0.272,0.155,0.097,�k�k��,8.7,�L
2019/03/07,07:10,0.208,0.189,0.298,0.277,0.271,0.155,0.097,�k��,8.7,�L
2019/03/07,07:20,0.208,0.190,0.299,0.279,0.274,0.154,0.097,�k�k��,6.9,�L
2019/03/07,07:30,0.209,0.190,0.298,0.279,0.272,0.155,0.098,�k�k��,7.3,�L
2019/03/07,07:40,0.209,0.190,0.298,0.280,0.272,0.154,0.098,�k�k��,7.6,�L
2019/03/07,07:50,0.208,0.191,0.300,0.279,0.272,0.154,0.099,�k�k��,7.0,�L
2019/03/07,08:00,0.211,0.191,0.301,0.280,0.274,0.155,0.099,�k�k��,7.4,�L
2019/03/07,08:10,0.210,0.191,0.301,0.280,0.275,0.156,0.100,�k,7.8,�L
2019/03/07,08:20,0.209,0.192,0.299,0.280,0.274,0.156,0.099,�k,7.9,�L
2019/03/07,08:30,0.209,0.191,0.300,0.278,0.273,0.155,0.099,�k,8.6,�L
2019/03/07,08:40,0.209,0.191,0.299,0.279,0.273,0.154,0.098,�k�k��,7.3,�L
2019/03/07,08:50,0.209,0.190,0.299,0.280,0.273,0.155,0.098,�k�k��,7.8,�L
2019/03/07,09:00,0.209,0.191,0.298,0.278,0.273,0.154,0.098,�k�k��,7.0,�L
2019/03/07,09:10,0.208,0.189,0.298,0.279,0.273,0.153,0.098,�k�k��,6.7,�L
2019/03/07,09:20,0.207,0.189,0.299,0.278,0.273,0.152,0.096,�k,6.3,�L
2019/03/07,09:30,0.207,0.189,0.299,0.280,0.272,0.152,0.096,�k,8.1,�L
2019/03/07,09:40,0.206,0.188,0.295,0.277,0.273,0.152,0.095,�k,9.0,�L
2019/03/07,09:50,0.204,0.187,0.297,0.277,0.272,0.151,0.094,�k,7.4,�L
2019/03/07,10:00,0.206,0.186,0.297,0.277,0.271,0.151,0.095,�k,7.7,�L
2019/03/07,10:10,0.206,0.188,0.297,0.276,0.272,0.150,0.095,�k,7.5,�L
2019/03/07,10:20,0.206,0.186,0.296,0.278,0.271,0.151,0.095,�k�k��,8.5,�L
2019/03/07,10:30,0.206,0.188,0.297,0.279,0.271,0.152,0.095,�k,9.6,�L
2019/03/07,10:40,0.206,0.187,0.296,0.279,0.272,0.151,0.095,�k�k��,9.3,�L
2019/03/07,10:50,0.207,0.188,0.296,0.277,0.273,0.151,0.095,�k�k��,8.5,�L
2019/03/07,11:00,0.207,0.187,0.297,0.277,0.272,0.151,0.095,�k�k��,9.6,�L
2019/03/07,11:10,0.208,0.188,0.296,0.277,0.271,0.152,0.096,�k�k��,7.5,�L
2019/03/07,11:20,0.207,0.187,0.298,0.278,0.273,0.152,0.096,�k�k��,7.8,�L
2019/03/07,11:30,0.208,0.188,0.297,0.277,0.271,0.152,0.095,�k�k��,9.0,�L
2019/03/07,11:40,0.207,0.188,0.297,0.277,0.271,0.152,0.096,�k�k��,8.2,�L
2019/03/07,11:50,0.207,0.187,0.298,0.278,0.271,0.151,0.095,�k�k��,9.2,�L
2019/03/07,12:00,0.208,0.187,0.297,0.277,0.272,0.150,0.094,�k�k��,9.2,�L
2019/03/07,12:10,0.206,0.186,0.296,0.276,0.272,0.151,0.094,�k�k��,7.8,�L
2019/03/07,12:20,0.206,0.186,0.296,0.276,0.271,0.151,0.093,�k�k��,9.8,�L
2019/03/07,12:30,0.205,0.186,0.296,0.277,0.271,0.150,0.094,�k�k��,9.5,�L
2019/03/07,12:40,0.205,0.186,0.297,0.275,0.271,0.149,0.094,�k�k��,8.9,�L
2019/03/07,12:50,0.205,0.186,0.296,0.277,0.272,0.149,0.093,�k�k��,9.0,�L
2019/03/07,13:00,0.204,0.187,0.295,0.276,0.270,0.150,0.093,�k�k��,8.7,�L
2019/03/07,13:10,0.205,0.186,0.296,0.276,0.271,0.150,0.093,�k�k��,9.2,�L
2019/03/07,13:20,0.206,0.186,0.298,0.276,0.270,0.150,0.092,�k,9.2,�L
2019/03/07,13:30,0.205,0.186,0.296,0.276,0.271,0.149,0.093,�k,9.5,�L
2019/03/07,13:40,0.205,0.187,0.296,0.277,0.272,0.150,0.093,�k�k��,8.1,�L
2019/03/07,13:50,0.205,0.186,0.297,0.276,0.271,0.149,0.093,�k�k��,7.4,�L
2019/03/07,14:00,0.205,0.186,0.295,0.277,0.270,0.149,0.093,�k�k��,6.9,�L
2019/03/07,14:10,0.205,0.186,0.297,0.277,0.270,0.150,0.092,�k,6.8,�L
2019/03/07,14:20,0.205,0.187,0.295,0.277,0.269,0.150,0.092,�k,6.3,�L
2019/03/07,14:30,0.205,0.186,0.295,0.275,0.270,0.149,0.092,�k�k��,6.8,�L
2019/03/07,14:40,0.205,0.185,0.296,0.276,0.270,0.149,0.092,�k�k��,6.4,�L
2019/03/07,14:50,0.205,0.185,0.296,0.276,0.270,0.148,0.091,-,CALM,�L
2019/03/07,15:00,0.204,0.185,0.296,0.276,0.270,0.150,0.092,-,CALM,�L
2019/03/07,15:10,0.203,0.185,0.296,0.276,0.269,0.150,0.093,�k�k��,9.3,�L
2019/03/07,15:20,0.204,0.185,0.297,0.277,0.270,0.150,0.092,�k�k��,8.1,�L
2019/03/07,15:30,0.205,0.185,0.297,0.277,0.270,0.149,0.092,�k�k��,8.7,�L
2019/03/07,15:40,0.207,0.186,0.297,0.277,0.270,0.150,0.093,�k�k��,7.5,�L
2019/03/07,15:50,0.206,0.186,0.297,0.277,0.271,0.149,0.093,�k�k��,7.4,�L
2019/03/07,16:00,0.206,0.186,0.296,0.275,0.271,0.149,0.094,�k�k��,7.4,�L
2019/03/07,16:10,0.205,0.185,0.298,0.276,0.271,0.149,0.093,�k�k��,7.7,�L
2019/03/07,16:20,0.205,0.186,0.297,0.278,0.270,0.150,0.092,�k�k��,7.5,�L
2019/03/07,16:30,0.205,0.185,0.296,0.277,0.271,0.150,0.093,�k�k��,6.9,�L
2019/03/07,16:40,0.205,0.185,0.297,0.276,0.269,0.150,0.093,�k�k��,6.6,�L
2019/03/07,16:50,0.205,0.185,0.297,0.277,0.270,0.150,0.092,�k�k��,7.1,�L
2019/03/07,17:00,0.206,0.186,0.297,0.277,0.271,0.150,0.093,�k�k��,7.7,�L
2019/03/07,17:10,0.206,0.187,0.297,0.278,0.272,0.151,0.093,�k,7.3,�L
2019/03/07,17:20,0.205,0.187,0.297,0.277,0.271,0.151,0.094,�k�k��,5.1,�L
2019/03/07,17:30,0.206,0.188,0.297,0.277,0.272,0.151,0.094,�k�k��,7.3,�L
2019/03/07,17:40,0.207,0.187,0.297,0.278,0.273,0.151,0.094,�k,8.1,�L
2019/03/07,17:50,0.207,0.188,0.298,0.280,0.272,0.153,0.095,�k,7.9,�L
2019/03/07,18:00,0.208,0.188,0.300,0.277,0.272,0.153,0.095,�k�k��,6.7,�L
2019/03/07,18:10,0.208,0.189,0.298,0.280,0.274,0.154,0.097,�k�k��,8.1,�L
2019/03/07,18:20,0.208,0.191,0.298,0.279,0.274,0.155,0.098,�k�k��,7.7,�L
2019/03/07,18:30,0.211,0.190,0.299,0.281,0.274,0.155,0.099,�k�k��,7.4,�L
2019/03/07,18:40,0.210,0.190,0.299,0.279,0.274,0.155,0.100,�k�k��,8.7,�L
2019/03/07,18:50,0.209,0.191,0.299,0.280,0.276,0.156,0.099,�k�k��,7.9,�L
2019/03/07,19:00,0.210,0.191,0.299,0.281,0.275,0.157,0.100,�k�k��,7.6,�L
2019/03/07,19:10,0.210,0.192,0.300,0.281,0.277,0.157,0.100,�k�k��,8.8,�L
2019/03/07,19:20,0.210,0.191,0.300,0.280,0.276,0.158,0.101,�k�k��,8.6,�L
2019/03/07,19:30,0.211,0.191,0.299,0.282,0.276,0.156,0.100,�k�k��,7.7,�L
2019/03/07,19:40,0.211,0.190,0.299,0.280,0.275,0.156,0.099,�k�k��,8.1,�L
2019/03/07,19:50,0.209,0.191,0.300,0.279,0.274,0.154,0.098,�k�k��,7.3,�L
2019/03/07,20:00,0.210,0.188,0.299,0.278,0.274,0.154,0.098,�k�k��,7.5,�L
2019/03/07,20:10,0.209,0.188,0.298,0.276,0.272,0.153,0.098,�k�k��,6.8,�L
2019/03/07,20:20,0.208,0.187,0.297,0.276,0.271,0.151,0.096,�k�k��,7.0,�L
2019/03/07,20:30,0.207,0.187,0.297,0.276,0.272,0.151,0.095,�k��,8.2,�L
2019/03/07,20:40,0.206,0.187,0.295,0.277,0.271,0.150,0.095,�k��,8.5,�L
2019/03/07,20:50,0.208,0.186,0.297,0.275,0.269,0.150,0.094,�k�k��,9.2,�L
2019/03/07,21:00,0.206,0.185,0.296,0.275,0.270,0.149,0.094,�k�k��,9.2,�L
2019/03/07,21:10,0.207,0.185,0.296,0.276,0.271,0.150,0.094,�k��,8.1,�L
2019/03/07,21:20,0.205,0.187,0.295,0.276,0.271,0.149,0.093,�k�k��,8.7,�L
2019/03/07,21:30,0.205,0.185,0.294,0.275,0.270,0.150,0.093,�k�k��,8.4,�L
2019/03/07,21:40,0.204,0.185,0.296,0.275,0.270,0.148,0.093,�k�k��,7.6,�L
2019/03/07,21:50,0.206,0.185,0.296,0.275,0.269,0.148,0.093,�k�k��,7.8,�L
2019/03/07,22:00,0.204,0.184,0.296,0.274,0.269,0.148,0.092,�k�k��,7.0,��
2019/03/07,22:10,0.204,0.184,0.295,0.276,0.269,0.148,0.092,�k�k��,7.8,�L
2019/03/07,22:20,0.203,0.183,0.295,0.275,0.269,0.148,0.092,�k�k��,7.9,�L
2019/03/07,22:30,0.204,0.184,0.294,0.274,0.269,0.147,0.091,�k�k��,7.7,�L
2019/03/07,22:40,0.203,0.183,0.295,0.273,0.268,0.147,0.091,�k�k��,7.4,��
2019/03/07,22:50,0.203,0.182,0.294,0.273,0.269,0.147,0.090,�k�k��,7.3,��
2019/03/07,23:00,0.203,0.185,0.294,0.275,0.268,0.147,0.091,�k�k��,6.6,�L
2019/03/07,23:10,0.202,0.183,0.293,0.274,0.269,0.146,0.090,�k��,6.6,�L
2019/03/07,23:20,0.202,0.183,0.294,0.274,0.267,0.147,0.090,�k��,6.2,�L
2019/03/07,23:30,0.203,0.183,0.294,0.273,0.268,0.147,0.091,�k�k��,6.3,��
2019/03/07,23:40,0.203,0.183,0.294,0.274,0.268,0.147,0.090,�k�k��,6.4,�L
2019/03/07,23:50,0.203,0.184,0.295,0.274,0.268,0.147,0.090,�k�k��,5.9,�L
